Other Surface Observations
Issued by NWS Charleston, SC

Home | Current Version | Previous Version | Text Only | Print | Product List | Glossary On
Versions: 1 2 3 4 5 6 7 8 9 10 11 12 13 14 15 16 17 18 19 20 21 22 23 24 25 26 27 28 29 30 31 32 33 34 35 36 37 38 39 40 41 42 43 44 45 46 47 48 49 50
000
SXUS52 KCHS 291511
OSOCHS

MARINE OBSERVATIONS
NATIONAL WEATHER SERVICE CHARLESTON SC
1000 AM EST THU JAN 29 2015

...DOWNTOWN CHARLESTON AND HARBOR...

CITY           SKY/WX    TMP DP  RH WIND       PRES   REMARKS
WATERFRONT PRK NOT AVBL
FORT JOHNSON   NOT AVBL

...LAKE MOULTRIE...

CITY           SKY/WX    TMP DP  RH WIND       PRES   REMARKS
PINOPOLIS        N/A     45  21  39 CALM      30.31S

...LAKE AND SUPPLEMENTAL COASTAL OBSERVATIONS...

STATION/POSITION TIME  TEMP    WIND        PRES    WAVE   SWELL
                       AIR SEA DIR/SP/G            HT/PER HT/PER/DIR
                 (UTC) (F)     (DEG/KT/KT) (MB)    (FT/S) (FT/S/D)
FORT PULASKI     1400   45 51  360/  3/  4 1028.6R
SAPELO ISLAND    1400   46      10/  4     1028.0S
UPR LAKE MARION  NOT AVBL
WINYAH BAY       1345   39        CALM     1027.0
LAKE MURRAY      1400   44     180/  8/  9 1027.1S
ACE BASIN NERRS  NOT AVBL


...C-MAN AND BUOY OBSERVATIONS...

STATION/POSITION TIME  TEMP    WIND        PRES    WAVE   SWELL
                       AIR SEA DIR/SP/G            HT/PER HT/PER/DIR
                 (UTC) (F)     (DEG/KT/KT) (MB)    (FT/S) (FT/S/D)
BUOY 41004       1450   53 67   50/  4/  8 1027.9R   4/ 9   3/ 9
BUOY 41008       1450   53 53   40/  6/  8 1028.2R   3/11   3/ 80/11
FOLLY BEACH CMAN 1500   47      40/  6/  7 1029.1R
CAPERS NS BUOY   1400   47      50/  8/ 10   N/A
FRIPP NS BUOY    1400   49      30/  6/  8 1027.2R
5E ST. MARYS GA  NOT AVBL


STATION/POSITION TIME  TEMP    WIND        PRES    WAVE   SWELL
                       AIR SEA DIR/SP/G            HT/PER HT/PER/DIR
                 (UTC) (F)     (DEG/KT/KT) (MB)    (FT/S) (FT/S/D)
FRYING PAN BUOY  1450   48 65   40/  6/ 10 1029.0S   4/ 7   3/ 80/ 7
BUOY 41025       1450   39 71  340/ 12/ 16 1027.9R   6/11   5/ 40/11
CAPE LOOKOUT NC  1500   37     350/  4/  6 1028.6R
BUOY 41002       1450   56 72  350/ 12/ 17 1027.2R   8/ 9   7/ 20/ 9
BUOY 41010       1420   63 75   70/ 10/ 12 1026.5R
ST AUGUSTINE FL  1500   54     350/  8/ 10 1028.0R

$$



USA.gov is the U.S. government's official web portal to all federal, state and local government web resources and services.